FW5380 Weather Reports


Display with metric or nautical units.
time (UTC)temp
F
wind
direction
speed
MPH
gust
MPH
rain 1hr
in
rain 24hr
in
rain mn
in
humidity
%
barometer
mb
20260901203031 75 340 7.0 15.0 0.00 0.00 0.00 47 1011.3
20260901201528 76 334 5.0 11.0 0.00 0.00 0.00 49 1011.5
20260901200034 73 346 5.0 10.0 0.00 0.00 0.00 52 1011.8
20260901194644 72 345 4.0 10.0 0.00 0.00 0.00 54 1012.0
20260901193036 71 352 3.0 10.0 0.00 0.00 0.00 55 1012.2
20260901191537 70 341 3.0 8.0 0.00 0.00 0.00 56 1012.4
20260901190030 70 12 3.0 8.0 0.00 0.00 0.00 57 1012.5
20260901184534 69 349 3.0 7.0 0.00 0.00 0.00 58 1012.6
20260901183029 69 309 2.0 8.0 0.00 0.00 0.00 59 1012.8
20260901181531 68 41 2.0 6.0 0.00 0.00 0.00 60 1012.9
20260901180030 68 331 2.0 7.0 0.00 0.00 0.00 61 1012.9
20260901174532 67 341 2.0 6.0 0.00 0.00 0.00 61 1012.8
20260901171531 63 349 1.0 6.0 0.00 0.00 0.00 68 1012.8
20260901170105 63 328 2.0 5.0 0.00 0.00 0.00 69 1012.8
20260901164531 62 7 2.0 6.0 0.00 0.00 0.00 71 1012.9
20260901163031 61 56 1.0 5.0 0.00 0.00 0.00 74 1012.9
20260901161531 59 67 2.0 5.0 0.00 0.00 0.00 78 1012.9
20260901154529 55 128 0.0 4.0 0.00 0.00 0.00 83 1012.8
20260901153032 54 157 0.0 0.0 0.00 0.00 0.00 84 1012.8
20260901151531 53 171 0.0 1.0 0.00 0.00 0.00 85 1012.6
20260901150031 52 180 0.0 0.0 0.00 0.00 0.00 85 1012.5
20260901144531 51 180 0.0 0.0 0.00 0.00 0.00 85 1012.5
20260901143029 50 180 0.0 1.0 0.00 0.00 0.00 85 1012.4
20260901140033 50 180 1.0 3.0 0.00 0.00 0.00 82 1012.3
20260901134529 49 180 2.0 5.0 0.00 0.00 0.00 81 1012.1
20260901131532 50 180 1.0 3.0 0.00 0.00 0.00 80 1011.9
20260901124530 50 157 0.0 2.0 0.00 0.00 0.00 79 1011.7
20260901123031 50 178 1.0 3.0 0.00 0.00 0.00 79 1011.7
20260901121532 50 180 2.0 3.0 0.00 0.00 0.00 78 1011.5
20260901120030 50 180 0.0 2.0 0.00 0.00 0.00 78 1011.7
20260901113108 50 180 1.0 3.0 0.00 0.00 0.00 75 1011.7
20260901111531 51 180 1.0 3.0 0.00 0.00 0.00 74 1011.6
20260901110030 50 180 2.0 3.0 0.00 0.00 0.00 73 1011.6
20260901104531 50 180 2.0 3.0 0.00 0.00 0.00 72 1011.7
20260901103032 51 180 0.0 2.0 0.00 0.00 0.00 71 1011.7
20260901101608 51 180 0.0 2.0 0.00 0.00 0.00 71 1011.8
20260901100030 51 180 2.0 4.0 0.00 0.00 0.00 71 1011.7
20260901094529 51 180 2.0 4.0 0.00 0.00 0.00 70 1011.8
20260901091531 51 198 0.0 3.0 0.00 0.00 0.00 68 1011.7
20260901090031 51 167 0.0 3.0 0.00 0.00 0.00 67 1011.8
20260901084531 52 157 0.0 3.0 0.00 0.00 0.00 65 1011.9
20260901083030 52 157 0.0 0.0 0.00 0.00 0.00 64 1012.0
20260901081607 53 162 1.0 3.0 0.00 0.00 0.00 62 1012.0
20260901080107 54 180 0.0 2.0 0.00 0.00 0.00 61 1012.0
20260901074530 53 177 1.0 4.0 0.00 0.00 0.00 61 1012.0
20260901073032 54 157 0.0 3.0 0.00 0.00 0.00 60 1011.9
20260901071529 54 157 0.0 3.0 0.00 0.00 0.00 59 1011.9
20260901070037 55 166 1.0 4.0 0.00 0.00 0.00 58 1011.9
20260901064531 56 202 0.0 3.0 0.00 0.00 0.00 55 1012.0
20260901063029 58 191 0.0 3.0 0.00 0.00 0.00 52 1012.1
20260901061531 60 237 0.0 3.0 0.00 0.00 0.00 48 1012.2
20260901060031 61 166 1.0 5.0 0.00 0.00 0.00 47 1012.2
20260901054530 62 166 4.0 6.0 0.00 0.00 0.00 48 1012.2
20260901053106 61 162 4.0 7.0 0.00 0.00 0.00 49 1012.3
20260901050107 60 171 4.0 7.0 0.00 0.00 0.00 54 1012.3
20260901043031 61 171 3.0 4.0 0.00 0.00 0.00 54 1012.2
20260901041606 61 180 1.0 4.0 0.00 0.00 0.00 53 1012.3
20260901040029 61 180 0.0 2.0 0.00 0.00 0.00 53 1012.1
20260901034532 61 164 1.0 3.0 0.00 0.00 0.00 54 1012.0
20260901033033 62 157 2.0 3.0 0.00 0.00 0.00 52 1011.8
20260901031531 63 156 3.0 4.0 0.00 0.00 0.00 52 1011.6
20260901024533 65 140 1.0 4.0 0.00 0.00 0.00 50 1011.5
20260901023031 67 151 1.0 4.0 0.00 0.00 0.00 47 1011.3
20260901021530 71 177 3.0 4.0 0.00 0.00 0.00 43 1011.2
20260901020106 76 58 0.0 3.0 0.00 0.00 0.00 37 1011.1
20260901014607 79 38 1.0 4.0 0.00 0.00 0.00 31 1011.1
20260901013030 80 30 1.0 5.0 0.00 0.00 0.00 28 1011.1
20260901011531 82 30 3.0 8.0 0.00 0.00 0.00 27 1011.1
20260901010028 83 24 4.0 10.0 0.00 0.00 0.00 27 1011.2
20260901004604 84 29 3.0 10.0 0.00 0.00 0.00 27 1011.3
20260901003033 84 41 4.0 9.0 0.00 0.00 0.00 27 1011.4
20260901001529 85 33 3.0 10.0 0.00 0.00 0.00 27 1011.5
20260901000030 84 31 3.0 8.0 0.00 0.00 0.00 27 1011.7
20260831234531 84 51 3.0 8.0 0.00 0.00 0.00 27 1011.9
20260831233042 83 53 3.0 8.0 0.00 0.00 0.00 27 1012.0
20260831231530 83 33 4.0 10.0 0.00 0.00 0.00 27 1012.2
20260831230032 83 24 5.0 11.0 0.00 0.00 0.00 27 1012.5
20260831224532 82 20 4.0 8.0 0.00 0.00 0.00 28 1012.7
20260831223108 82 26 5.0 11.0 0.00 0.00 0.00 29 1012.9
20260831221607 82 10 5.0 11.0 0.00 0.00 0.00 29 1013.0
20260831220054 81 6 4.0 11.0 0.00 0.00 0.00 30 1013.3
20260831214530 80 1 3.0 10.0 0.00 0.00 0.00 31 1013.6
20260831213033 79 41 3.0 8.0 0.00 0.00 0.00 32 1013.8
20260831210029 79 2 4.0 11.0 0.00 0.00 0.00 33 1014.2